Retour au catalogue

SL-8 DEB

ActifLEO
NORAD 17843·DEBRIS·🇷🇺 Russia

Lancé Apr 17, 1986 depuis Plesetsk Cosmodrome

Loading…

Prochains Passages (prochaines 24 heures)

TLE

FraisSource: Space-Track

Époque: Sep 14, 2026, 03:26 UTC

1 17843U 86030D   26257.14347182  .00000872  00000-0  22920-3 0  9997
2 17843  74.0285  64.0332 0013199 136.9248 223.2948 14.50595046117957

Suivez SL-8 DEB en temps réel avec AllMySat

Download on the App Store